Regional Weather Roundup
Issued by NWS

Home | Current Version | Previous Version | Graphics & Text | Print | Product List | Glossary On
Versions: 1 2 3 4 5 6 7 8 9 10 11 12 13 14 15 16 17 18 19 20 21 22 23 24 25 26 27 28 29 30 31 32 33 34 35 36 37 38 39 40 41 42 43 44 45 46 47 48 49 50
000
ASUS43 KOAX 250210
RWRNE

WEATHER ROUNDUP FOR NEBRASKA
NATIONAL WEATHER SERVICE OMAHA NE
800 PM CST FRI FEB 24 2017

NOTES: SATELLITE DATA IS BEING USED TO AUGMENT CLOUD COVER ABOVE
       12000 FEET.
       "FAIR" INDICATES FEW OR NO CLOUDS BELOW 12,000 FEET WITH NO
       SIGNIFICANT WEATHER AND/OR OBSTRUCTIONS TO VISIBILITY.

  * THESE STATIONS DO NOT REPORT WEATHER SUCH AS RAIN...SNOW OR FOG.

NEZ001>004-019>022-054>056-250300-
NEBRASKA PANHANDLE

CITY           SKY/WX    TMP DP  RH WIND       PRES   REMARKS
SCOTTSBLUFF    CLOUDY    16  12  84 CALM      30.05S
ALLIANCE       CLOUDY     6   4  91 W5        30.05R WCI  -3
CHADRON        CLOUDY    11   7  84 CALM      30.08S
KIMBALL        CLOUDY    14  13  98 CALM      30.02S
SIDNEY         CLOUDY    13   9  84 W5        30.06R WCI   5
$$

NEZ057>060-069>072-079>082-250300-
SOUTHWEST NEBRASKA

CITY           SKY/WX    TMP DP  RH WIND       PRES   REMARKS
NORTH PLATTE   CLOUDY    15   7  70 NW7       30.11R WCI   5
IMPERIAL       CLOUDY    21  15  78 NW7       30.10R WCI  12
LEXINGTON      PTCLDY    17  11  78 NW8       30.11S WCI   6
MCCOOK         CLOUDY    19  13  77 N6        30.12R WCI  11
OGALLALA       CLOUDY    16  13  88 W3        30.10R
$$

NEZ005>010-023>029-035>040-094-250300-
NORTH CENTRAL NEBRASKA

CITY           SKY/WX    TMP DP  RH WIND       PRES   REMARKS
VALENTINE      CLOUDY     5   1  83 W7        30.10R WCI  -7
AINSWORTH      CLOUDY    17  13  85 NW7       30.09S WCI   7
BROKEN BOW     CLOUDY    19  12  74 NW13      30.09R WCI   6
O`NEILL        CLOUDY    24  16  73 NW18      30.07S WCI  10
ORD            CLEAR     21  13  71 NW15      30.08R WCI   8
THEDFORD       CLOUDY    11   8  85 W7        30.10S WCI   1
$$

NEZ041-046>049-061>064-073>077-083>087-250300-
SOUTH CENTRAL NEBRASKA

CITY           SKY/WX    TMP DP  RH WIND       PRES   REMARKS
GRAND ISLAND   CLEAR     21  14  74 NW15      30.08R WCI   8
AURORA         CLEAR     22  16  77 NW15      30.07R WCI   9
HASTINGS       CLEAR     21  14  74 NW13      30.10R WCI   9
HEBRON         CLOUDY    24  18  78 NW10G17   30.10R WCI  13
HOLDREGE       PTCLDY    21  15  77 N10       30.11R WCI  10
KEARNEY *      CLOUDY    19  10  68 NW7       30.10S WCI  10
YORK           CLOUDY    23  18  80 NW15      30.05S WCI  10
$$

NEZ011>018-030>034-042>045-250300-
NORTHEAST NEBRASKA

CITY           SKY/WX    TMP DP  RH WIND       PRES   REMARKS
NORFOLK        CLOUDY    24  15  68 NW15      30.02R WCI  11
ALBION         CLOUDY    24  15  68 NW18G24   30.05R WCI  10
BLAIR          PTCLDY    23  17  77 NW10      29.98R WCI  12
FREMONT        CLEAR     24  18  78 NW14      30.01S WCI  12
TEKAMAH        CLEAR     22  15  75 NW13      30.01R WCI  10
WAYNE          CLOUDY    23  16  74 NW10      30.01S WCI  12
$$

NEZ050>053-065>068-078-088>093-250300-
SOUTHEAST NEBRASKA

CITY           SKY/WX    TMP DP  RH WIND       PRES   REMARKS
LINCOLN        CLOUDY    26  18  71 NW15      30.05R WCI  14
OMAHA EPPLEY   MOCLDY    25  15  66 NW17      29.99R WCI  12
BEATRICE       PTCLDY    26  19  77 NW14      30.05R WCI  14
FALLS CITY     PTCLDY    25  19  78 NW13      30.00R WCI  14
NEBRASKA CITY  PTCLDY    25  16  70 NW13      29.99R WCI  13
PLATTSMOUTH    CLEAR     25  15  65 NW21      29.98R WCI  11
$$

NEZ044-045-051>053-067-250300-
OMAHA AREA

CITY           SKY/WX    TMP DP  RH WIND       PRES   REMARKS
OMAHA EPPLEY   MOCLDY    25  15  66 NW17      29.99R WCI  12
BLAIR          PTCLDY    23  17  77 NW10      29.98R WCI  12
FREMONT        CLEAR     24  18  78 NW14      30.01S WCI  12
MILLARD        PTCLDY    28  19  70 NW10G17   30.01R WCI  18
OFFUTT AFB     PTCLDY    25  15  66 NW12      29.99R WCI  14
PLATTSMOUTH    CLEAR     25  15  65 NW21      29.98R WCI  11
WAHOO          FAIR      25  17  72 NW14G20   30.02R WCI  13
$$



USA.gov is the U.S. government's official web portal to all federal, state and local government web resources and services.